GW0458 Weather Reports


time (UTC)temp
F
wind
direction
speed
knots
gust
knots
rain 1hr
in
rain 24hr
in
rain mn
in
humidity
%
barometer
mb
20260510182929 59 210 0.0 0.0 0.00 0.00 0.00 85 1026.7
20260510175927 57 220 1.7 1.7 0.00 0.00 0.00 87 1026.4
20260510172923 57 217 0.0 0.0 0.00 0.00 0.00 89 1026.5
20260510165919 57 214 0.9 0.9 0.00 0.00 0.00 88 1026.6
20260510162919 56 198 1.7 1.7 0.00 0.00 0.00 89 1025.8
20260510155919 56 212 0.0 0.0 0.00 0.00 0.00 90 1026.0
20260510152919 54 203 0.0 0.0 0.00 0.00 0.00 92 1025.7
20260510145916 52 34 0.9 0.9 0.00 0.00 0.00 96 1025.5
20260510142912 50 204 0.0 0.0 0.00 0.00 0.00 99 1026.1
20260510135913 50 218 0.0 0.0 0.00 0.00 0.00 99 1024.3
20260510132908 48 204 0.0 0.9 0.00 0.00 0.00 99 1025.3
20260510125908 47 199 0.0 0.0 0.00 0.00 0.00 99 1025.6
20260510122904 47 196 0.0 0.0 0.00 0.00 0.00 99 1025.4
20260510115900 47 202 0.0 0.9 0.00 0.00 0.00 99 1025.4
20260510112855 48 194 0.9 0.9 0.00 0.00 0.00 99 1025.3
20260510105851 48 194 0.9 0.9 0.00 0.00 0.00 99 1024.9
20260510102850 50 198 0.0 0.9 0.00 0.00 0.00 99 1024.5
20260510095849 50 207 0.0 0.0 0.00 0.00 0.00 99 1024.3
20260510092846 51 203 0.0 0.0 0.00 0.00 0.00 99 1024.0
20260510085841 51 204 0.0 0.0 0.00 0.00 0.00 99 1024.0
20260510082841 51 201 0.0 0.0 0.00 0.00 0.00 98 1023.5
20260510075839 52 199 0.0 0.0 0.00 0.00 0.00 96 1023.8
20260510072836 52 210 0.0 0.0 0.00 0.00 0.00 96 1023.7
20260510065833 54 201 0.0 0.0 0.00 0.00 0.00 93 1023.7
20260510062831 56 203 0.0 0.0 0.00 0.00 0.00 89 1023.9
20260510055826 56 205 0.0 0.0 0.00 0.00 0.00 89 1023.6
20260510052825 58 210 0.0 0.0 0.00 0.00 0.00 85 1023.5
20260510045823 59 207 0.0 0.0 0.00 0.00 0.00 82 1023.5
20260510042821 60 209 0.0 0.0 0.00 0.00 0.00 78 1023.5
20260510035817 62 208 0.0 0.0 0.00 0.00 0.00 73 1023.3
20260510032815 63 211 0.0 0.0 0.00 0.00 0.00 69 1023.1
20260510025815 64 207 0.0 0.0 0.00 0.00 0.00 68 1023.4
20260510022813 67 213 0.0 0.0 0.00 0.00 0.00 61 1023.6
20260510015807 67 213 0.0 0.9 0.00 0.00 0.00 60 1023.7
20260510012806 68 216 0.0 0.9 0.00 0.00 0.00 59 1024.1
20260510005804 68 230 0.9 1.7 0.00 0.00 0.00 58 1024.7
20260510002801 68 256 0.9 1.7 0.00 0.00 0.00 57 1025.0
20260509235755 69 250 0.9 1.7 0.00 0.00 0.00 57 1025.1
20260509232753 69 244 1.7 1.7 0.00 0.00 0.00 56 1025.3
20260509225750 69 209 0.9 1.7 0.00 0.00 0.00 55 1025.9
20260509222749 68 219 0.0 0.0 0.00 0.00 0.00 59 1026.4
20260509215748 69 246 1.7 1.7 0.00 0.00 0.00 57 1026.4
20260509212746 69 237 0.9 1.7 0.00 0.00 0.00 56 1026.5
20260509205746 69 222 1.7 1.7 0.00 0.00 0.00 59 1026.7
20260509202742 69 206 0.9 0.9 0.00 0.00 0.00 56 1027.2
20260509195740 69 264 1.7 1.7 0.00 0.00 0.00 58 1027.4
20260509192737 70 275 2.6 2.6 0.00 0.00 0.00 56 1028.0
20260509185738 68 242 1.7 1.7 0.00 0.00 0.00 61 1028.4